This demonstration page uses our WeatherBlox Daily Observations layout. Learn more.

Left ArrowRight Arrow

38.83388, -104.82136

Hourly Observations for January 7, 2021

Temp ( °F °C ) Dew Point ( °F °C ) Humidity (%) Winds ( mph kmh ) Pressure ( in mb ) Visibility ( mi km ) Precip ( " mm )
12:58 am 00:58 Clear 32 -0.1 10 -12.4 39 39 Calm 29.85 1011 10 16 0.00 0.00
1:58 am 01:58 Clear 32 0 10 -12.5 39 39 Calm 29.85 1011 10 16 0.00 0.00
2:58 am 02:58 Clear 32 -0.2 10 -12.5 39 39 Calm 30.10 1019 10 16 0.00 0.00
3:58 am 03:58 Clear 31 -0.3 10 -12 41 41 Calm 30.09 1019 10 16 0.00 0.00
4:58 am 04:58 Clear 31 -0.3 11 -11.5 43 43 Calm 30.09 1019 10 16 0.00 0.00
5:58 am 05:58 Mostly Cloudy 32 0.2 15 -9.6 48 48 Calm 30.08 1019 10 16 0.00 0.00
6:58 am 06:58 Mostly Cloudy 33 0.7 15 -9.2 48 48 Calm 30.08 1019 10 16 0.00 0.00
7:58 am 07:58 Mostly Cloudy 34 1.1 16 -9.1 47 47 Calm 30.09 1019 10 16 0.00 0.00
8:58 am 08:58 Mostly Cloudy 36 2.1 15 -9.2 43 43 Calm 30.08 1019 10 16 0.00 0.00
9:58 am 09:58 Mostly Cloudy 41 4.9 15 -9.5 35 35 SE 7 11 29.87 1011 10 16 0.00 0.00
10:58 am 10:58 Mostly Cloudy 40 4.2 17 -8.1 41 41 SE 6 9 29.83 1010 10 16 0.00 0.00
11:58 am 11:58 Partly Cloudy 40 4.6 17 -8.2 39 39 ESE 6 9 29.80 1009 10 16 0.00 0.00
12:58 pm 12:58 Mostly Cloudy 39 4.1 16 -9 38 38 SSE 9 15 29.76 1008 10 16 0.00 0.00
1:58 pm 13:58 Mostly Cloudy 40 4.6 15 -9.5 36 36 SE 9 15 29.75 1008 10 16 0.00 0.00
2:58 pm 14:58 Mostly Sunny 39 3.7 14 -10 36 36 SE 8 13 29.78 1008 10 16 0.00 0.00
3:58 pm 15:58 Mostly Cloudy 37 2.8 13 -10.8 36 36 SSE 7 11 29.79 1009 10 16 0.00 0.00
4:58 pm 16:58 Mostly Cloudy 34 1.2 12 -11.3 39 39 S 10 17 29.83 1010 10 16 0.00 0.00
5:58 pm 17:58 Clear 31 -0.5 10 -12.3 41 41 S 13 20 29.84 1011 10 16 0.00 0.00
6:58 pm 18:58 Clear 31 -0.7 10 -12.5 41 41 S 9 15 29.86 1011 10 16 0.00 0.00
7:58 pm 19:58 Clear 28 -2.5 11 -11.4 51 51 NNE 5 7 29.89 1012 10 16 0.00 0.00
8:58 pm 20:58 Mostly Clear 28 -2.3 11 -11.8 49 49 NW 7 11 29.91 1013 10 16 0.00 0.00
9:58 pm 21:58 Clear 26 -3.1 12 -11.3 54 54 NNW 3 6 29.91 1013 10 16 0.00 0.00
10:58 pm 22:58 Clear 32 0 13 -10.4 46 46 NW 9 15 29.89 1012 10 16 0.00 0.00
11:58 pm 23:58 Clear 31 -0.6 15 -9.6 51 51 NNW 6 9 29.90 1013 10 16 0.00 0.00

Powered by AerisWeather